TimeEDT,TemperatureF,Dew PointF,Humidity,Sea Level PressureIn,VisibilityMPH,Wind Direction,Wind SpeedMPH,Gust SpeedMPH,PrecipitationIn,Events,Conditions,WindDirDegrees,DateUTC
12:58 AM,77.0,76.5,98,29.96,10.0,SW,3.5,-,N/A,,Partly Cloudy,220,2013-08-02 04:58:00
1:58 AM,76.8,76.5,99,29.95,10.0,South,3.5,-,N/A,,Clear,180,2013-08-02 05:58:00
2:31 AM,77.0,77.0,100,29.95,10.0,SW,3.5,-,N/A,Rain,Light Rain,230,2013-08-02 06:31:00
2:42 AM,77.0,77.0,100,29.94,10.0,SW,3.5,-,N/A,,Scattered Clouds,230,2013-08-02 06:42:00
2:58 AM,76.3,76.1,99,29.94,10.0,SSW,3.5,-,0.00,,Scattered Clouds,200,2013-08-02 06:58:00
3:56 AM,75.2,75.2,100,29.93,10.0,WSW,4.6,-,N/A,,Mostly Cloudy,240,2013-08-02 07:56:00
3:58 AM,75.7,75.4,99,29.94,10.0,WSW,5.8,-,N/A,,Mostly Cloudy,240,2013-08-02 07:58:00
4:58 AM,76.1,75.7,99,29.94,10.0,SW,5.8,-,N/A,,Mostly Cloudy,230,2013-08-02 08:58:00
5:24 AM,77.0,75.2,94,29.93,10.0,SW,5.8,-,N/A,,Scattered Clouds,220,2013-08-02 09:24:00
5:58 AM,75.4,75.2,99,29.94,10.0,WSW,4.6,-,N/A,,Clear,250,2013-08-02 09:58:00
6:58 AM,75.4,75.0,99,29.96,9.0,SSW,1.2,-,N/A,,Partly Cloudy,210,2013-08-02 10:58:00
7:16 AM,75.2,75.2,100,29.97,9.0,SSW,3.5,-,N/A,,Mostly Cloudy,210,2013-08-02 11:16:00
7:46 AM,75.2,75.2,100,29.98,10.0,WSW,3.5,-,N/A,,Scattered Clouds,240,2013-08-02 11:46:00
7:58 AM,76.5,76.1,99,29.99,10.0,Variable,3.5,-,N/A,,Scattered Clouds,0,2013-08-02 11:58:00
8:10 AM,77.0,77.0,100,29.99,10.0,West,3.5,-,N/A,,Mostly Cloudy,280,2013-08-02 12:10:00
8:30 AM,78.8,77.0,94,29.99,10.0,WSW,3.5,-,N/A,,Scattered Clouds,250,2013-08-02 12:30:00
8:58 AM,78.8,75.9,91,30.00,10.0,WNW,4.6,-,N/A,,Scattered Clouds,290,2013-08-02 12:58:00
9:02 AM,80.6,77.0,89,30.00,10.0,NW,5.8,-,N/A,,Mostly Cloudy,310,2013-08-02 13:02:00
9:06 AM,80.6,77.0,89,30.00,10.0,NNW,5.8,-,N/A,,Scattered Clouds,330,2013-08-02 13:06:00
9:58 AM,80.4,74.8,83,30.02,10.0,NNE,3.5,-,N/A,,Partly Cloudy,30,2013-08-02 13:58:00
10:58 AM,83.8,74.8,74,30.01,10.0,SE,5.8,-,N/A,,Partly Cloudy,130,2013-08-02 14:58:00
11:58 AM,83.3,74.1,74,30.02,10.0,Variable,2.3,-,N/A,,Mostly Cloudy,0,2013-08-02 15:58:00
12:53 PM,84.2,73.4,70,30.01,10.0,Variable,1.2,-,N/A,Rain,Rain,0,2013-08-02 16:53:00
12:58 PM,84.4,73.8,70,30.00,10.0,Calm,Calm,-,0.00,Rain,Light Rain,0,2013-08-02 16:58:00
1:03 PM,84.2,73.4,70,30.00,10.0,NNE,2.3,-,N/A,,Mostly Cloudy,20,2013-08-02 17:03:00
1:09 PM,84.2,75.2,74,30.01,10.0,North,2.3,-,N/A,,Mostly Cloudy,10,2013-08-02 17:09:00
1:10 PM,84.2,75.2,74,30.01,10.0,Variable,2.3,-,N/A,Rain,Light Rain,0,2013-08-02 17:10:00
1:35 PM,84.2,75.2,74,30.01,10.0,NE,1.2,-,N/A,,Scattered Clouds,40,2013-08-02 17:35:00
1:36 PM,84.2,75.2,74,30.01,10.0,NNE,1.2,-,N/A,Rain,Light Rain,20,2013-08-02 17:36:00
1:47 PM,84.2,75.2,74,30.00,10.0,East,3.5,-,N/A,,Scattered Clouds,80,2013-08-02 17:47:00
1:58 PM,85.5,75.2,71,30.00,10.0,ENE,3.5,-,0.00,,Partly Cloudy,70,2013-08-02 17:58:00
2:53 PM,84.2,75.2,74,29.99,10.0,SW,3.5,-,N/A,Rain,Light Rain,220,2013-08-02 18:53:00
2:58 PM,84.6,76.3,76,29.99,10.0,Variable,1.2,-,0.00,Rain,Light Rain,0,2013-08-02 18:58:00
3:10 PM,84.2,78.8,84,29.99,10.0,North,5.8,-,N/A,,Scattered Clouds,10,2013-08-02 19:10:00
3:58 PM,83.5,75.2,76,29.99,10.0,ENE,3.5,-,0.00,,Scattered Clouds,70,2013-08-02 19:58:00
4:30 PM,84.2,77.0,79,29.98,10.0,North,2.3,-,N/A,Rain,Light Rain,360,2013-08-02 20:30:00
4:47 PM,84.2,77.0,79,29.98,10.0,West,5.8,-,N/A,,Partly Cloudy,260,2013-08-02 20:47:00
4:58 PM,85.6,73.9,68,29.99,10.0,West,6.9,-,0.00,,Clear,270,2013-08-02 20:58:00
5:58 PM,88.0,75.9,67,29.97,10.0,WNW,5.8,-,N/A,,Clear,290,2013-08-02 21:58:00
6:43 PM,84.2,75.2,74,29.97,7.0,West,8.1,-,N/A,Rain,Light Rain,260,2013-08-02 22:43:00
6:45 PM,84.2,77.0,79,29.97,2.5,West,10.4,-,N/A,Rain,Light Rain,270,2013-08-02 22:45:00
6:47 PM,84.2,77.0,79,29.97,2.0,West,12.7,17.3,N/A,Rain,Heavy Rain,260,2013-08-02 22:47:00
6:49 PM,82.4,77.0,84,29.97,1.5,West,11.5,17.3,N/A,Rain,Heavy Rain,280,2013-08-02 22:49:00
6:51 PM,82.4,75.2,79,29.97,1.2,WNW,3.5,17.3,N/A,Rain,Heavy Rain,290,2013-08-02 22:51:00
6:53 PM,82.4,73.4,74,29.97,1.2,West,3.5,17.3,N/A,Rain,Light Rain,270,2013-08-02 22:53:00
6:55 PM,82.4,73.4,74,29.98,1.5,West,8.1,17.3,N/A,Rain,Light Rain,270,2013-08-02 22:55:00
6:58 PM,81.9,73.6,76,29.97,2.0,NW,5.8,-,0.11,Rain,Rain,320,2013-08-02 22:58:00
7:00 PM,80.6,77.0,89,29.97,2.5,NW,4.6,-,N/A,Rain,Rain,320,2013-08-02 23:00:00
7:04 PM,80.6,77.0,89,29.98,4.0,Variable,5.8,-,N/A,Rain,Rain,0,2013-08-02 23:04:00
7:16 PM,82.4,78.8,89,29.98,10.0,South,3.5,-,N/A,,Scattered Clouds,180,2013-08-02 23:16:00
7:58 PM,80.4,77.7,91,29.99,10.0,NNW,3.5,-,0.04,,Partly Cloudy,330,2013-08-02 23:58:00
8:58 PM,79.7,79.3,99,30.01,10.0,South,3.5,-,N/A,,Scattered Clouds,170,2013-08-03 00:58:00
9:58 PM,78.4,78.1,99,30.02,10.0,Calm,Calm,-,N/A,,Scattered Clouds,0,2013-08-03 01:58:00
10:01 PM,78.8,78.8,100,30.02,10.0,Variable,5.8,-,N/A,Rain,Light Rain,0,2013-08-03 02:01:00
10:11 PM,77.0,75.2,94,30.03,1.8,SSW,15.0,19.6,N/A,Rain,Heavy Rain,200,2013-08-03 02:11:00
10:13 PM,77.0,73.4,89,30.04,1.5,SSW,10.4,19.6,N/A,Rain,Heavy Rain,200,2013-08-03 02:13:00
10:15 PM,77.0,73.4,89,30.04,1.2,SW,13.8,19.6,N/A,Rain,Heavy Rain,230,2013-08-03 02:15:00
10:17 PM,77.0,73.4,89,30.04,1.0,SW,12.7,19.6,N/A,Rain,Heavy Rain,230,2013-08-03 02:17:00
10:19 PM,77.0,75.2,94,30.04,0.8,SSW,9.2,19.6,N/A,Rain,Heavy Rain,210,2013-08-03 02:19:00
10:21 PM,75.2,75.2,100,30.04,1.0,SW,6.9,17.3,N/A,Rain,Heavy Rain,230,2013-08-03 02:21:00
10:22 PM,75.2,75.2,100,30.04,0.8,Variable,4.6,17.3,N/A,Rain-Thunderstorm,Heavy Thunderstorms and Rain,0,2013-08-03 02:22:00
10:24 PM,75.2,75.2,100,30.04,0.8,Variable,1.2,-,N/A,Rain-Thunderstorm,Heavy Thunderstorms and Rain,0,2013-08-03 02:24:00
10:26 PM,75.2,75.2,100,30.04,0.8,ENE,3.5,-,N/A,Rain-Thunderstorm,Heavy Thunderstorms and Rain,70,2013-08-03 02:26:00
10:30 PM,73.4,73.4,100,30.03,1.0,ENE,5.8,-,N/A,Rain-Thunderstorm,Heavy Thunderstorms and Rain,70,2013-08-03 02:30:00
10:32 PM,73.4,73.4,100,30.03,1.2,ENE,4.6,-,N/A,Rain-Thunderstorm,Light Thunderstorms and Rain,70,2013-08-03 02:32:00
10:34 PM,73.4,73.4,100,30.03,2.5,East,3.5,-,N/A,Rain-Thunderstorm,Light Thunderstorms and Rain,90,2013-08-03 02:34:00
10:36 PM,73.4,73.4,100,30.03,3.0,ESE,3.5,-,N/A,Rain-Thunderstorm,Light Thunderstorms and Rain,120,2013-08-03 02:36:00
10:37 PM,73.4,73.4,100,30.03,4.0,SE,3.5,-,N/A,Rain-Thunderstorm,Light Rain,140,2013-08-03 02:37:00
10:51 PM,73.4,73.4,100,30.03,10.0,WNW,3.5,-,N/A,Rain,Light Rain,290,2013-08-03 02:51:00
10:58 PM,73.6,73.4,99,30.04,8.0,WNW,3.5,-,0.94,Rain-Thunderstorm,Light Rain,290,2013-08-03 02:58:00
11:11 PM,73.4,73.4,100,30.02,10.0,Variable,2.3,-,N/A,Thunderstorm,Partly Cloudy,0,2013-08-03 03:11:00
11:37 PM,73.4,73.4,100,30.03,10.0,SE,8.1,-,N/A,,Mostly Cloudy,130,2013-08-03 03:37:00
11:43 PM,73.4,73.4,100,30.03,10.0,SE,5.8,-,N/A,Thunderstorm,Mostly Cloudy,130,2013-08-03 03:43:00
11:57 PM,73.4,73.4,100,30.04,10.0,Variable,4.6,-,N/A,Thunderstorm,Thunderstorm,0,2013-08-03 03:57:00
11:58 PM,73.8,73.6,99,30.06,10.0,NW,8.1,-,0.01,Thunderstorm,Thunderstorm,310,2013-08-03 03:58:00